Location: Cosy Dell
(34.2789°N, 117.4537°W)
Time: 20:26:08
(UTC+00:00)

ERBS - Pass Details

Date: 14 July 2020
Orbit: 408 x 426 km, 57.0° (Epoch: 13 August)

Event Time Altitude Azimuth Distance (km) Brightness Sun altitude
Exits shadow 10:31:56 21° 107° (ESE) 985 4.3 -22.9°
Drops below altitude 10° 10:33:59 10° 70° (ENE) 1,471 5.8 -22.7°
Sets 10:36:21 0° 54° (NE) 2,335 7.4 -22.4°
